| time (UTC) | temp C | wind direction | speed KPH | gust KPH | rain 1hr cm | rain 24hr cm | rain mn cm | humidity % | barometer mb |
| 20260906150040 | 31 | 74 | 0.0 | 9.7 | 0.00 | 0.00 | 0.00 | 11 | 1012.4 |
| 20260906144537 | 31 | 248 | 3.2 | 11.3 | 0.00 | 0.00 | 0.00 | 11 | 1012.5 |
| 20260906143034 | 31 | 290 | 3.2 | 11.3 | 0.00 | 0.00 | 0.00 | 11 | 1012.5 |
| 20260906141529 | 30 | 329 | 1.6 | 8.0 | 0.00 | 0.00 | 0.00 | 11 | 1012.7 |
| 20260906140040 | 28 | 308 | 4.8 | 9.7 | 0.00 | 0.00 | 0.00 | 11 | 1012.6 |
| 20260906134520 | 26 | 310 | 3.2 | 6.4 | 0.00 | 0.00 | 0.00 | 11 | 1012.5 |
| 20260906133001 | 26 | 262 | 0.0 | 0.0 | 0.00 | 0.00 | 0.00 | 11 | 1012.6 |
| 20260906131601 | 25 | 167 | 0.0 | 0.0 | 0.00 | 0.00 | 0.00 | 11 | 1012.5 |
| 20260906130046 | 25 | 125 | 0.0 | 0.0 | 0.00 | 0.00 | 0.00 | 11 | 1012.5 |
| 20260906124543 | 24 | 126 | 0.0 | 0.0 | 0.00 | 0.00 | 0.00 | 11 | 1012.6 |
| 20260906123027 | 24 | 125 | 0.0 | 0.0 | 0.00 | 0.00 | 0.00 | 11 | 1012.6 |
| 20260906121525 | 24 | 125 | 0.0 | 0.0 | 0.00 | 0.00 | 0.00 | 11 | 1012.4 |
| 20260906120025 | 23 | 125 | 0.0 | 0.0 | 0.00 | 0.00 | 0.00 | 11 | 1012.4 |
| 20260906114526 | -17 | 0.0 | 0.0 | 0.00 | 0.00 | 0.00 | 1012.3 | ||
| 20260906113017 | -17 | 0.0 | 0.0 | 0.00 | 0.00 | 0.00 | 1012.2 | ||
| 20260906111512 | -17 | 0.0 | 0.0 | 0.00 | 0.00 | 0.00 | 1012.2 | ||
| 20260906110007 | -17 | 0.0 | 0.0 | 0.00 | 0.00 | 0.00 | 1012.2 | ||
| 20260906104504 | -17 | 0.0 | 0.0 | 0.00 | 0.00 | 0.00 | 1012.0 | ||
| 20260906103041 | -17 | 0.0 | 0.0 | 0.00 | 0.00 | 0.00 | 1011.8 | ||
| 20260906101538 | -17 | 0.0 | 0.0 | 0.00 | 0.00 | 0.00 | 1011.7 | ||
| 20260906100015 | -17 | 0.0 | 0.0 | 0.00 | 0.00 | 0.00 | 1011.8 | ||
| 20260906094511 | -17 | 0.0 | 0.0 | 0.00 | 0.00 | 0.00 | 1011.5 | ||
| 20260906093100 | 23 | 126 | 0.0 | 0.0 | 0.00 | 0.00 | 0.00 | 11 | 1011.3 |
| 20260906091549 | 23 | 125 | 0.0 | 0.0 | 0.00 | 0.00 | 0.00 | 11 | 1011.1 |
| 20260906090042 | 23 | 126 | 0.0 | 0.0 | 0.00 | 0.00 | 0.00 | 11 | 1011.1 |
| 20260906084534 | 23 | 126 | 0.0 | 0.0 | 0.00 | 0.00 | 0.00 | 11 | 1011.1 |
| 20260906083018 | 23 | 125 | 0.0 | 0.0 | 0.00 | 0.00 | 0.00 | 11 | 1010.9 |
| 20260906081510 | 23 | 125 | 0.0 | 0.0 | 0.00 | 0.00 | 0.00 | 11 | 1011.0 |
| 20260906074553 | 23 | 125 | 0.0 | 0.0 | 0.00 | 0.00 | 0.00 | 11 | 1011.0 |
| 20260906073029 | 23 | 126 | 0.0 | 0.0 | 0.00 | 0.00 | 0.00 | 11 | 1011.2 |
| 20260906071527 | 24 | 126 | 0.0 | 0.0 | 0.00 | 0.00 | 0.00 | 11 | 1011.3 |
| 20260906070008 | 24 | 126 | 0.0 | 0.0 | 0.00 | 0.00 | 0.00 | 11 | 1011.4 |
| 20260906064507 | 24 | 126 | 0.0 | 0.0 | 0.00 | 0.00 | 0.00 | 11 | 1011.4 |
| 20260906063053 | 24 | 125 | 0.0 | 3.2 | 0.00 | 0.00 | 0.00 | 11 | 1011.5 |
| 20260906061551 | 25 | 126 | 0.0 | 0.0 | 0.00 | 0.00 | 0.00 | 11 | 1011.5 |
| 20260906060026 | 25 | 125 | 0.0 | 0.0 | 0.00 | 0.00 | 0.00 | 11 | 1011.7 |
| 20260906054523 | 25 | 125 | 0.0 | 0.0 | 0.00 | 0.00 | 0.00 | 11 | 1011.9 |
| 20260906053005 | 25 | 125 | 0.0 | 0.0 | 0.00 | 0.00 | 0.00 | 11 | 1011.8 |
| 20260906051505 | 25 | 149 | 0.0 | 0.0 | 0.00 | 0.00 | 0.00 | 11 | 1012.0 |
| 20260906050047 | 25 | 150 | 0.0 | 0.0 | 0.00 | 0.00 | 0.00 | 11 | 1011.9 |
| 20260906044547 | 26 | 150 | 0.0 | 3.2 | 0.00 | 0.00 | 0.00 | 11 | 1012.0 |
| 20260906043033 | 26 | 170 | 0.0 | 4.8 | 0.00 | 0.00 | 0.00 | 11 | 1012.0 |
| 20260906041542 | 26 | 56 | 0.0 | 3.2 | 0.00 | 0.00 | 0.00 | 11 | 1012.1 |
| 20260906040012 | 26 | 167 | 0.0 | 0.0 | 0.00 | 0.00 | 0.00 | 11 | 1012.0 |
| 20260906034514 | 26 | 167 | 0.0 | 0.0 | 0.00 | 0.00 | 0.00 | 11 | 1012.1 |
| 20260906033100 | 26 | 167 | 0.0 | 1.6 | 0.00 | 0.00 | 0.00 | 11 | 1012.2 |
| 20260906031559 | 27 | 148 | 0.0 | 0.0 | 0.00 | 0.00 | 0.00 | 11 | 1012.5 |
| 20260906030058 | 27 | 148 | 0.0 | 0.0 | 0.00 | 0.00 | 0.00 | 11 | 1012.6 |
| 20260906024618 | 27 | 148 | 0.0 | 0.0 | 0.00 | 0.00 | 0.00 | 11 | 1012.8 |
| 20260906023105 | 27 | 148 | 0.0 | 0.0 | 0.00 | 0.00 | 0.00 | 11 | 1012.3 |
| 20260906021557 | 27 | 148 | 0.0 | 0.0 | 0.00 | 0.00 | 0.00 | 11 | 1011.9 |
| 20260906020055 | 28 | 148 | 0.0 | 0.0 | 0.00 | 0.00 | 0.00 | 11 | 1011.9 |
| 20260906014556 | 28 | 288 | 0.0 | 0.0 | 0.00 | 0.08 | 0.00 | 11 | 1011.5 |
| 20260906013038 | 28 | 288 | 0.0 | 0.0 | 0.00 | 0.08 | 0.00 | 11 | 1011.0 |
| 20260906011552 | 28 | 288 | 0.0 | 0.0 | 0.00 | 0.08 | 0.00 | 11 | 1010.8 |
| 20260906010046 | 28 | 288 | 0.0 | 0.0 | 0.00 | 0.08 | 0.00 | 11 | 1010.7 |
| 20260906004520 | 29 | 288 | 0.0 | 0.0 | 0.00 | 0.08 | 0.00 | 11 | 1010.4 |
| 20260906003001 | 30 | 288 | 0.0 | 0.0 | 0.00 | 0.08 | 0.00 | 11 | 1010.3 |
| 20260906001607 | 30 | 290 | 0.0 | 0.0 | 0.00 | 0.08 | 0.00 | 11 | 1010.3 |
| 20260906000043 | 31 | 289 | 0.0 | 4.8 | 0.00 | 0.08 | 0.00 | 11 | 1010.5 |
| 20260905234542 | 31 | 280 | 0.0 | 4.8 | 0.00 | 0.08 | 0.00 | 36 | 1010.5 |
| 20260905233024 | 32 | 280 | 0.0 | 4.8 | 0.00 | 0.08 | 0.00 | 40 | 1010.5 |
| 20260905231537 | 32 | 299 | 3.2 | 9.7 | 0.00 | 0.08 | 0.00 | 55 | 1010.5 |
| 20260905230006 | 32 | 299 | 3.2 | 6.4 | 0.00 | 0.08 | 0.00 | 61 | 1010.4 |
| 20260905224505 | 33 | 283 | 1.6 | 8.0 | 0.00 | 0.08 | 0.00 | 66 | 1010.3 |
| 20260905223047 | 33 | 250 | 0.0 | 4.8 | 0.00 | 0.08 | 0.00 | 66 | 1010.5 |
| 20260905221550 | 34 | 181 | 0.0 | 6.4 | 0.00 | 0.08 | 0.00 | 66 | 1010.5 |
| 20260905220025 | 33 | 238 | 0.0 | 11.3 | 0.00 | 0.08 | 0.00 | 66 | 1010.7 |
| 20260905214519 | 33 | 229 | 0.0 | 9.7 | 0.00 | 0.08 | 0.00 | 66 | 1010.7 |
| 20260905213059 | 33 | 235 | 1.6 | 9.7 | 0.00 | 0.08 | 0.00 | 64 | 1010.6 |
| 20260905211552 | 32 | 269 | 1.6 | 11.3 | 0.00 | 0.08 | 0.00 | 62 | 1010.9 |
| 20260905210036 | 32 | 288 | 0.0 | 11.3 | 0.00 | 0.08 | 0.00 | 57 | 1011.0 |
| 20260905204532 | 32 | 292 | 4.8 | 11.3 | 0.00 | 0.08 | 0.00 | 44 | 1011.3 |
| 20260905203010 | 32 | 288 | 3.2 | 12.9 | 0.00 | 0.08 | 0.00 | 46 | 1011.4 |
| 20260905201508 | 32 | 276 | 8.0 | 11.3 | 0.00 | 0.08 | 0.00 | 44 | 1011.5 |
| 20260905200048 | 31 | 314 | 6.4 | 14.5 | 0.00 | 0.08 | 0.00 | 29 | 1011.7 |
| 20260905194545 | 31 | 302 | 3.2 | 8.0 | 0.00 | 0.08 | 0.00 | 12 | 1012.1 |
| 20260905193030 | 31 | 351 | 8.0 | 14.5 | 0.00 | 0.08 | 0.00 | 20 | 1012.5 |
| 20260905191528 | 31 | 342 | 8.0 | 16.1 | 0.00 | 0.08 | 0.00 | 27 | 1012.6 |
| 20260905190007 | 31 | 326 | 8.0 | 17.7 | 0.00 | 0.08 | 0.00 | 19 | 1012.7 |
| 20260905184505 | 31 | 335 | 8.0 | 20.9 | 0.00 | 0.08 | 0.00 | 15 | 1012.8 |
| 20260905183107 | 31 | 357 | 6.4 | 17.7 | 0.00 | 0.08 | 0.00 | 21 | 1012.9 |
| 20260905181546 | 31 | 340 | 8.0 | 12.9 | 0.00 | 0.08 | 0.00 | 11 | 1013.2 |
| 20260905180034 | 31 | 335 | 9.7 | 19.3 | 0.00 | 0.08 | 0.00 | 12 | 1013.4 |
| 20260905174533 | 32 | 251 | 4.8 | 14.5 | 0.00 | 0.08 | 0.00 | 29 | 1013.4 |
| 20260905173031 | 31 | 285 | 6.4 | 11.3 | 0.00 | 0.08 | 0.00 | 11 | 1013.8 |
| 20260905171531 | 31 | 317 | 8.0 | 14.5 | 0.00 | 0.08 | 0.00 | 15 | 1013.9 |
| 20260905170030 | 30 | 335 | 4.8 | 11.3 | 0.00 | 0.08 | 0.00 | 11 | 1014.1 |
| 20260905164530 | 30 | 319 | 4.8 | 8.0 | 0.00 | 0.08 | 0.00 | 11 | 1014.2 |
| 20260905163028 | 31 | 310 | 8.0 | 11.3 | 0.00 | 0.08 | 0.00 | 11 | 1014.5 |
| 20260905161527 | 31 | 301 | 4.8 | 9.7 | 0.00 | 0.08 | 0.00 | 11 | 1014.6 |
| 20260905160026 | 31 | 328 | 3.2 | 8.0 | 0.00 | 0.08 | 0.00 | 11 | 1014.7 |
| 20260905154507 | 31 | 208 | 3.2 | 4.8 | 0.00 | 0.08 | 0.00 | 11 | 1014.6 |
| 20260905153009 | 31 | 185 | 1.6 | 4.8 | 0.00 | 0.08 | 0.00 | 11 | 1014.7 |
| 20260905151543 | 28 | 285 | 0.0 | 4.8 | 0.00 | 0.08 | 0.00 | 11 | 1014.6 |